Beibuwan-1

operational
NORAD ID: 66055 Int'l Des: 2025-234 Owner: ZHWK Country: CN
LEOCIRCULARRETROGRADESSO

About Beibuwan-1

Description loading...

Live Position

Loading 3D Globe...

Upcoming Passes

Altitude History

Altitude vs Time

uPlot chart will show altitude changes over time

Two-Line Element Set

1 66055U 25234C 25293.17802922 .00006616 00000-0 29970-3 0 9999
2 66055 97.4594 358.8438 0014233 281.3141 78.6495 15.21116573 162
Epoch: Oct 20, 2025 • Age: 9 hours

Current Status

Altitude 507.3 km
Velocity 7.61 km/s
Sub-Earth Point -29.24°S, 129.89°E
Launch Date Oct 19, 2025
Age 1 days
Type other

Technical Details

Classification Payload
Mass 250.00 kg
Dry Mass 250.00 kg
Total Mass 250.00 kg
Length 1.00 m
Diameter 1.00 m
Span 6.00 m
Shape Box+3 pan
Manufacturer ZHWK/SECM
Bus Type ZK1
Phase Status In Orbit
Owner/State ZHWK/CN

Large Constellations

Loading constellations...